HST
1 20580U 90037B 24295.14668807 .00010940 00000-0 47915-3 0 9999
2 20580 28.4680 219.7512 0002781 333.3413 26.7037 15.20384608696463
ISS (ZARYA)
1 25544U 98067A 24295.34166233 .00021883 00000-0 38776-3 0 9996
2 25544 51.6411 50.5268 0009330 91.7774 319.5733 15.50150813478117
CXO
1 25867U 99040B 24297.43533143 .00000846 00000-0 00000-0 0 9998
2 25867 44.0565 143.4408 8757924 303.1333 359.8995 0.37807118 15049